Regional Weather Roundup
Issued by NWS

Home | Current Version | Previous Version | Text Only | Print | Product List | Glossary On
Versions: 1 2 3 4 5 6 7 8 9 10 11 12 13 14 15 16 17 18 19 20 21 22 23 24 25 26 27 28 29 30 31 32 33 34 35 36 37 38 39 40 41 42 43 44 45 46 47 48 49 50
000
ASUS43 KMPX 280810
RWRMN
WEATHER ROUNDUP FOR MINNESOTA
NATIONAL WEATHER SERVICE TWIN CITIES/CHANHASSEN MN
300 AM CDT MON JUL 28 2014


NOTE: "FAIR" INDICATES FEW OR NO CLOUDS BELOW 12,000 FEET WITH NO
SIGNIFICANT WEATHER AND/OR OBSTRUCTIONS TO VISIBILITY. N/A MEANS
CURRENT SKY AND/OR WEATHER CONDITIONS ARE NOT AVAILABLE.

MNZ060>063-068>070-280900-
   Twin Cities Metro

CITY           SKY/WX    TMP DP  RH WIND       PRES   REMARKS
TWIN CITIES    CLOUDY    64  57  78 NW7       30.15R
ST PAUL        CLOUDY    64  56  75 NW10      30.14S
CRYSTAL        CLOUDY    65  57  75 NW6       30.14R
BLAINE         CLOUDY    64  61  88 W5        30.15R
LAKEVILLE      CLOUDY    61  57  88 W3        30.15S
EDEN PRAIRIE   CLOUDY    64  58  80 NW5       30.14R
SOUTH ST PAUL  CLOUDY    65  55  71 NW3       30.14S
LAKE ELMO      FAIR      59  55  88 CALM      30.15R
$$
MNZ001>005-007-008-013>017-022>024-027-028-280900-
   Northwest Minnesota

CITY           SKY/WX    TMP DP  RH WIND       PRES   REMARKS
BEMIDJI        CLOUDY    58  55  87 NW6       30.19S
HALLOCK        MOCLDY    55  54  94 NW3       30.23R
ROSEAU         CLOUDY    57  54  88 NW3       30.21R
WARROAD        CLOUDY    57  54  88 NW7       30.20S
THIEF RVR FALL CLOUDY    61  55  82 NW7       30.22R
CROOKSTON      CLOUDY    61  55  82 N8        30.23S
FOSSTON        CLOUDY    57  55  94 CALM      30.22R
DETROIT LAKES  CLOUDY    59  57  94 NW6       30.23S
MOORHEAD       CLOUDY    61  61 100 N6        30.23S
PARK RAPIDS    CLOUDY    60  55  83 NW7       30.20R
$$
MNZ006-009>011-018-025>026-280900-
   North Central Minnesota

CITY           SKY/WX    TMP DP  RH WIND       PRES   REMARKS
BAUDETTE       MOCLDY    57  54  89 VRB5      30.19S
FLAG ISLAND    CLEAR     63  57  82 N7        30.18S
INTL FALLS     CLEAR     47  45  93 CALM      30.16S
WASKISH        MOCLDY    59  55  88 CALM      30.19R
BIG FORK       CLEAR     54  52  94 CALM      30.18R
LONGVILLE      CLOUDY    63  55  77 N5        30.18R
GRAND RAPIDS   CLOUDY    57  54  88 NW3       30.17R
CRANE LAKE     MOCLDY    48  46  93 CALM      30.17S
ORR            CLOUDY    54  52  94 CALM      30.14S
COOK           CLOUDY    52  52 100 CALM      30.16S
$$
MNZ012-019>021-037-280900-
   Northeast Minnesota

CITY           SKY/WX    TMP DP  RH WIND       PRES   REMARKS
DULUTH         CLOUDY    57  53  86 NW5       30.14R
ELY            CLOUDY    54  52  94 CALM      30.14S
HIBBING        CLOUDY    56  52  86 NW6       30.16R
EVELETH        CLOUDY    57  52  82 N3        30.16S
DULUTH HARBOR  CLOUDY    59  55  88 CALM      30.14R
TWO HARBORS    MOCLDY    55  48  76 NW3       30.11S
SILVER BAY     CLEAR     48  48 100 CALM      30.11S
GRAND MARAIS     N/A     59  52  77 NW8       30.08R
G MARAIS ARPRT   N/A     52  46  82 W5        30.12S
$$
MNZ029>031-032-039>041-046>048-054>057-064-280900-
   West Central Minnesota

CITY           SKY/WX    TMP DP  RH WIND       PRES   REMARKS
FERGUS FALLS   CLOUDY    61  55  82 NW6       30.22R
WHEATON        CLOUDY    57  55  94 NW7       30.24S
MORRIS         CLOUDY    61  59  94 NW6       30.20S
ALEXANDRIA     CLOUDY    62  59  90 N6        30.21S
ELBOW LAKE     CLOUDY    61  59  92 NW7       30.21R
WADENA         CLOUDY    59  57  94 NW3       30.20S
GLENWOOD       CLOUDY    61  59  94 NW3       30.20S
APPLETON       MOCLDY    63  57  82 N6        30.20R
BENSON         CLOUDY    61  59  94 N5        30.20S
ORTONVILLE     PTCLDY    59  55  88 NW8       30.21S
MADISON        CLEAR     61  57  88 NW5       30.21R
WILLMAR        DRIZZLE   63  59  88 N3        30.20S
$$
MNZ033>034-036-042>043-049>051-058-059-280900-
   Central Minnesota

CITY           SKY/WX    TMP DP  RH WIND       PRES   REMARKS
ST CLOUD       CLOUDY    64  58  80 NW3       30.16S
SAUK CENTRE    CLOUDY    61  58  92 NW7       30.19S
PAYNESVILLE    CLOUDY    60  58  95 CALM      30.19R
AITKIN         CLOUDY    63  55  77 CALM      30.15S
PINE RIVER     CLOUDY    63  55  77 NW3       30.21R
BRAINERD       CLOUDY    62  56  80 NW7       30.18R
STAPLES        CLOUDY    61  55  82 N5        30.19S
LONG PRAIRIE   CLOUDY    59  57  94 W6        30.20R
LITTLE FALLS   CLOUDY    63  54  72 CALM      30.18S
LITCHFIELD     CLOUDY    63  63 100 NW3       30.18S
BUFFALO        CLOUDY    64  57  79 NW5       30.17R
MAPLE LAKE     CLOUDY    64  60  87 W3        30.17S
$$
MNZ037-044-045-052-053-280900-
   East Central Minnesota

CITY           SKY/WX    TMP DP  RH WIND       PRES   REMARKS
PRINCETON      CLOUDY    63  59  88 W3        30.16S
MORA           CLOUDY    59  52  77 CALM      30.17R
CAMBRIDGE      MOCLDY    63  54  72 NW3       30.13S
RUSH CITY      CLOUDY    60  55  84 NW5       30.14S
MOOSE LAKE     CLOUDY    55  54  94 CALM      30.13S
HINCKLEY       CLOUDY    59  55  88 N5        30.14S
CLOQUET        CLOUDY    55  54  94 NW6       30.15R
MCGREGOR       CLOUDY    57  55  94 NW3       30.16S
$$
MNZ071>073-080-081-089-090-097-098-280900-
   Southwest Minnesota

CITY           SKY/WX    TMP DP  RH WIND       PRES   REMARKS
MONTEVIDEO     MOCLDY    61  57  88 N7        30.20S
GRANITE FALLS  CLEAR     60  58  93 NW6       30.21R
CANBY          CLOUDY    59  55  88 NW6       30.22R
MARSHALL       CLOUDY    57  54  88 NW7       30.19S
REDWOOD FALLS  CLOUDY    62  60  93 N5        30.17S
OLIVIA         CLOUDY    63  59  88 W3        30.18S
PIPESTONE      CLOUDY    57  54  88 N8        30.22S
WINDOM         CLOUDY    61  57  88 NW8       30.19R
WORTHINGTON    CLOUDY    57  54  88 NW8       30.21S
JACKSON        CLOUDY    61  55  82 NW6       30.19R
TRACY          CLOUDY    60  58  91 CALM      30.21R
SLAYTON        CLOUDY    58  56  94 CALM      30.22S
$$
MNZ065>067-074>077-082>085-091>093-280900-
   South Central Minnesota

CITY           SKY/WX    TMP DP  RH WIND       PRES   REMARKS
MANKATO        CLOUDY    63  57  82 N3        30.16S
NEW ULM        CLOUDY    63  63 100 N6        30.16S
ST JAMES       PTCLDY    61  57  88 W5        30.18R
FAIRMONT       CLOUDY    61  55  82 N6        30.17R
GLENCOE        MOCLDY    63  58  84 CALM      30.16S
FARIBAULT      CLOUDY    64  55  72 CALM      30.15S
OWATONNA       CLOUDY    61  55  82 CALM      30.15S
WASECA         PTCLDY    57  52  82 CALM      30.17S
ALBERT LEA     MOCLDY    61  55  82 CALM      30.15S
$$
MNZ078>079-086>088-094>096-280900-
   Southeast Minnesota

CITY           SKY/WX    TMP DP  RH WIND       PRES   REMARKS
ROCHESTER      CLOUDY    58  55  90 NW5       30.15S
RED WING       CLOUDY    61  55  82 CALM      30.12S
STANTON        CLOUDY    62  57  83 CALM      30.13S
DODGE CENTER   CLOUDY    59  55  88 N3        30.15R
WINONA         MOCLDY    59  55  88 NW5       30.12S
AUSTIN         CLOUDY    59  55  88 N3        30.14S
PRESTON        CLOUDY    56  56 100 NW5       30.14S
$$
ABBREVIATIONS USED IN REMARKS
   TC - TEMPERATURES IN CELSIUS
  WCI - WIND CHILL INDEX
   HX - HEAT INDEX
  VSB - VISIBILITY
$$



USA.gov is the U.S. government's official web portal to all federal, state and local government web resources and services.